Waratah West Real Estate, NSW, 2298 Newcastle

Thinking about buying in Waratah West? Now could not be a better time, with a whopping 1321 properties either residential or commercial there's certainly plenty to choose from.

The average property price for this area is $613,000 with prices in this suburb ranging from $443,000 to $838,000.

Distance to the coast is 4 Km.

Waratah West Real Estate Market Outlook

In Waratah West there has been a history of lower than average prices and demand, offering opportunities for investors or first home owners, especially in the context of the growth in working from home. Low average incomes in Waratah West is reflected in smaller and lower quality accommodation. Over time this may change providsing long-term returns but in the short to medium term, prices are likely to be less than state averages. The slightly lower than average earnings from occupations in Waratah West changes the housing and lifestyle preference. It is more a matter of what can be afforded rather than what would we prefer, leading to slower price increases over time. Lower than average population density constrains growth in Waratah West to an extent. However, where buyers are willing to compromise on housing and lifestyle choice, there are affordable options. Lower than average industry presence in Waratah West we believe will be less of a negative impact than it has in the past. Post-COVID and the growth in working from home has lessened the demand for local employment options. This may make Waratah West a better buying opportunity than it may have been in the past.

About

Properties For Sale

Harcourts 24 BERNICE CR, WARATAH WEST, NSW, 2298 3 1 2 Under Offer

Local Schools


Waratah West Public School

(While the above schools are located with the suburb of Waratah West there may also be nearby schools whose catchments cover this suburb)

Local Crime Rates


Average Local Climate by month


(mm)
RAIN
Min (°C)
TEMP
Max (°C)
TEMP
Min (%)
HUMIDITY
Max (%)
HUMIDITY
(m/sec)
WIND
(MJ/sq m)
SOLAR
Jan2.018.930.148.193.64.624.5
Feb3.318.628.352.794.54.220.7
Mar5.117.426.854.2954.116.6
Apr4.413.724.551.695.83.614.4
May2.610.021.049.393.84.011.3
Jun4.88.718.254.494.24.39.5
Jul2.36.818.346.191.94.510.8
Aug1.86.819.838.591.64.513.7
Sept2.09.423.037.092.54.318.2
Oct2.412.224.841.593.04.421.3
Nov2.515.526.946.893.74.424
Dec2.517.328.247.893.34.624.8

source: Australian Government Bureau of Meteorology

Recently Sold Properties / House Prices

13-07-2022 $735,000 99 ALLOWAH ST WARATAH WEST 2298
04-07-2022 $762,000 16 ANGUS AVE WARATAH WEST 2298
29-06-2022 $788,000 24 KING ST WARATAH WEST 2298
23-06-2022 $790,000 15 ALLOWAH ST WARATAH WEST 2298
03-06-2022 $670,000 41 ANGUS AVE WARATAH WEST 2298
03-06-2022 $632,000 24 VILLA RD WARATAH WEST 2298
27-05-2022 $960,000 12 KIMIAN AVE WARATAH WEST 2298
27-05-2022 $580,000 8 STANNETT ST WARATAH WEST 2298
24-05-2022 $800,000 2 BRANXTON ST WARATAH WEST 2298
23-05-2022 $930,000 30 ANGUS AVE WARATAH WEST 2298
20-05-2022 $865,000 36 BRANXTON ST WARATAH WEST 2298
19-05-2022 $1,421,000 22 AVOCA CL WARATAH WEST 2298
18-05-2022 $1,070,000 41 UNIVERSITY DR WARATAH WEST 2298
12-05-2022 $820,000 10 ALLOWAH ST WARATAH WEST 2298
12-05-2022 $741,000 21 KING ST WARATAH WEST 2298
04-05-2022 $700,000 98 LORNA ST WARATAH WEST 2298
03-05-2022 $567,500 3 ACACIA AVE WARATAH WEST 2298
02-05-2022 $800,000 7 TRIPET PL WARATAH WEST 2298
14-04-2022 $730,000 91 LORNA ST WARATAH WEST 2298
13-04-2022 $735,000 5 ADELAIDE ST WARATAH WEST 2298
11-04-2022 $592,000 14 / 47 LEONORA PDE WARATAH WEST 2298
25-03-2022 $800,000 38 BRANXTON ST WARATAH WEST 2298
24-03-2022 $581,000 10 / 47 LEONORA PDE WARATAH WEST 2298
21-03-2022 $540,000 40 STANNETT ST WARATAH WEST 2298
17-03-2022 $745,000 4 VILLA RD WARATAH WEST 2298
17-03-2022 $812,000 16 VILLA RD WARATAH WEST 2298
15-03-2022 $850,000 22 CATHERINE ST WARATAH WEST 2298
01-03-2022 $746,000 19 VERA ST WARATAH WEST 2298
28-02-2022 $570,000 15 / 62 ALLOWAH ST WARATAH WEST 2298
03-02-2022 $950,000 44 ANGUS AVE WARATAH WEST 2298
28-01-2022 $855,000 9 PARKHILL PDE WARATAH WEST 2298
25-01-2022 $812,000 35 DELAURET SQ WARATAH WEST 2298
21-01-2022 $780,000 30 KING ST WARATAH WEST 2298
21-01-2022 $645,000 26 NORMAN ST WARATAH WEST 2298
23-12-2021 $500,000 264 CHRISTO RD WARATAH WEST 2298
22-12-2021 $539,259 3 / 28 QUEEN ST WARATAH WEST 2298
21-12-2021 $680,000 30 CATHERINE ST WARATAH WEST 2298
20-12-2021 $803,000 2 COOKSEY CL WARATAH WEST 2298
17-12-2021 $1,025,000 14 AVOCA CL WARATAH WEST 2298
17-12-2021 $715,000 25 UNIVERSITY DR WARATAH WEST 2298
17-12-2021 $755,000 4 KING ST WARATAH WEST 2298
14-12-2021 $925,000 1 PARKHILL PDE WARATAH WEST 2298
17-11-2021 $795,000 37 STANNETT ST WARATAH WEST 2298
17-11-2021 $690,000 67 UNIVERSITY DR WARATAH WEST 2298
17-11-2021 $795,000 37 STANNETT ST WARATAH WEST 2298
17-11-2021 $690,000 67 UNIVERSITY DR WARATAH WEST 2298
12-11-2021 $760,000 44 VILLA RD WARATAH WEST 2298
10-11-2021 $790,000 24 VERA ST WARATAH WEST 2298
05-11-2021 $630,000 3 / 58 ALLOWAH ST WARATAH WEST 2298
26-10-2021 $840,000 2 LEONORA PDE WARATAH WEST 2298

Internet Speed

  • Fibre to the Node
  • Fibre to the Premises
  • Satellite

Residz covers 12m+ Australian properties and brings together a wealth of data to give you a better understanding of an area. From crime and schools to bush fire, flood risk and more. Begin your search for properties for sale or learn more about where you currently reside. Residz is an exciting next-generation Real Estate platform getting better by the day!